K2MST Weather Reports


Display with metric or nautical units.
time (UTC)temp
F
wind
direction
speed
MPH
gust
MPH
rain 1hr
in
rain 24hr
in
rain mn
in
humidity
%
barometer
mb
20260510051519 53 203 1.0 3.0 0.00 0.17 0.00 85 1006.0
20260510050519 53 0.0 2.0 0.00 0.17 0.00 84 1005.9
20260510045519 53 158 3.0 8.0 0.00 0.17 0.00 84 1005.7
20260510044519 53 180 7.0 14.0 0.03 0.17 0.00 85 1005.5
20260510043519 53 180 6.0 11.0 0.05 0.17 0.00 86 1005.6
20260510042519 53 180 6.0 12.0 0.08 0.17 0.00 87 1005.5
20260510041519 53 180 8.0 14.0 0.09 0.17 0.00 87 1005.7
20260510040519 53 180 6.0 11.0 0.10 0.17 0.00 87 1005.5
20260510035540 53 180 6.0 12.0 0.11 0.17 0.17 86 1005.6
20260510034519 53 180 4.0 10.0 0.09 0.14 0.14 86 1005.8
20260510033519 54 225 2.0 5.0 0.08 0.12 0.12 85 1005.9
20260510032518 54 180 3.0 9.0 0.09 0.09 0.09 85 1005.9
20260510031518 54 180 3.0 7.0 0.08 0.08 0.08 84 1006.0
20260510030519 54 225 3.0 5.0 0.07 0.07 0.07 83 1006.2
20260510025518 55 248 3.0 6.0 0.06 0.06 0.06 82 1006.3
20260510024518 56 270 5.0 12.0 0.05 0.05 0.05 80 1006.3
20260510023518 57 270 7.0 12.0 0.04 0.04 0.04 77 1006.5
20260510023018 59 270 11.0 18.0 0.03 0.03 0.03 74 1006.4
20260510022018 58 203 8.0 15.0 0.00 0.00 0.00 76 1005.2
20260510021018 58 180 7.0 15.0 0.00 0.00 0.00 76 1004.4
20260510020038 58 203 6.0 11.0 0.00 0.00 0.00 76 1004.1
20260510015038 58 180 7.0 13.0 0.00 0.00 0.00 76 1003.9
20260510014018 58 158 7.0 13.0 0.00 0.00 0.00 75 1003.9
20260510013019 58 158 5.0 10.0 0.00 0.00 0.00 75 1003.9
20260510012018 58 158 6.0 11.0 0.00 0.00 0.00 75 1004.0
20260510011018 58 158 8.0 14.0 0.00 0.00 0.00 75 1003.6
20260510010018 58 180 7.0 14.0 0.00 0.00 0.00 74 1003.6
20260510005018 58 158 10.0 14.0 0.00 0.00 0.00 74 1003.3
20260510004018 58 180 10.0 15.0 0.00 0.00 0.00 74 1003.4
20260510003018 58 180 8.0 13.0 0.00 0.00 0.00 74 1003.4
20260510002018 59 180 7.0 15.0 0.00 0.00 0.00 73 1003.3
20260510001018 59 180 6.0 13.0 0.00 0.00 0.00 73 1003.3
20260510000018 60 180 6.0 11.0 0.00 0.00 0.00 71 1003.3
20260509235038 60 158 5.0 11.0 0.00 0.00 0.00 70 1003.3
20260509234018 61 158 6.0 10.0 0.00 0.00 0.00 69 1003.2
20260509233018 61 158 5.0 10.0 0.00 0.00 0.00 68 1003.4
20260509232018 61 180 6.0 12.0 0.00 0.00 0.00 68 1003.2
20260509231017 62 180 5.0 16.0 0.00 0.00 0.00 67 1003.1
20260509230038 63 180 9.0 14.0 0.00 0.00 0.00 65 1003.1
20260509225037 63 180 7.0 15.0 0.00 0.00 0.00 65 1003.2
20260509224018 63 180 6.0 13.0 0.00 0.00 0.00 66 1003.3
20260509223017 63 180 8.0 15.0 0.00 0.00 0.00 65 1003.1
20260509222017 63 180 8.0 15.0 0.00 0.00 0.00 66 1003.3
20260509221017 62 180 7.0 14.0 0.00 0.00 0.00 66 1003.3
20260509220017 62 180 9.0 14.0 0.00 0.00 0.00 67 1003.4
20260509215017 63 180 9.0 18.0 0.00 0.00 0.00 65 1003.4
20260509214017 64 180 10.0 18.0 0.00 0.00 0.00 63 1003.4
20260509213017 63 158 9.0 18.0 0.00 0.00 0.00 64 1003.4
20260509212037 62 158 8.0 16.0 0.00 0.00 0.00 66 1003.4
20260509211017 63 158 12.0 22.0 0.00 0.00 0.00 65 1003.6
20260509210017 62 180 12.0 21.0 0.00 0.00 0.00 65 1003.6
20260509205057 62 180 12.0 21.0 0.00 0.00 0.00 65 1003.6
20260509204017 64 180 11.0 19.0 0.00 0.00 0.00 63 1003.7
20260509203017 64 203 9.0 21.0 0.00 0.00 0.00 62 1003.9
20260509202017 63 203 15.0 23.0 0.00 0.00 0.00 63 1003.8
20260509201057 64 203 11.0 22.0 0.00 0.00 0.00 63 1003.9
20260509200017 63 158 10.0 19.0 0.00 0.00 0.00 63 1003.9
20260509195017 62 180 12.0 18.0 0.00 0.00 0.00 66 1004.0
20260509194019 61 158 9.0 15.0 0.00 0.00 0.00 66 1004.3
20260509193018 62 180 12.0 19.0 0.00 0.00 0.00 66 1004.5
20260509192019 63 180 8.0 13.0 0.00 0.00 0.00 64 1004.5
20260509191018 64 180 6.0 13.0 0.00 0.00 0.00 63 1004.6
20260509190019 63 180 9.0 17.0 0.00 0.00 0.00 63 1004.7
20260509185019 62 203 10.0 20.0 0.00 0.00 0.00 64 1004.9
20260509184019 63 203 7.0 12.0 0.00 0.00 0.00 65 1004.9
20260509183039 62 180 5.0 12.0 0.00 0.00 0.00 66 1005.1
20260509182018 60 180 8.0 14.0 0.00 0.00 0.00 68 1005.2
20260509181018 59 180 6.0 14.0 0.00 0.00 0.00 70 1005.3
20260509180018 59 203 7.0 13.0 0.00 0.00 0.00 70 1005.3
20260509175039 58 180 7.0 13.0 0.00 0.00 0.00 71 1005.3
20260509174018 58 180 5.0 12.0 0.00 0.00 0.00 72 1005.2
20260509173019 58 158 7.0 10.0 0.00 0.00 0.00 72 1005.3
20260509172018 57 158 5.0 11.0 0.00 0.00 0.00 74 1005.4
20260509171018 56 158 3.0 8.0 0.00 0.00 0.00 75 1005.5
20260509170018 56 135 3.0 11.0 0.00 0.00 0.00 76 1005.6
20260509165038 55 90 5.0 11.0 0.00 0.00 0.00 77 1005.5
20260509164018 55 68 5.0 12.0 0.00 0.00 0.00 76 1005.7
20260509163018 55 68 4.0 7.0 0.00 0.00 0.00 76 1006.0
20260509162018 55 158 3.0 6.0 0.00 0.00 0.00 76 1006.2
20260509161018 55 158 5.0 9.0 0.00 0.00 0.00 78 1006.3
20260509160018 54 180 4.0 9.0 0.00 0.00 0.00 78 1006.3
20260509155018 54 180 4.0 8.0 0.00 0.00 0.00 78 1006.4
20260509154018 54 180 5.0 11.0 0.00 0.00 0.00 77 1006.5
20260509153038 54 158 2.0 6.0 0.00 0.00 0.00 77 1006.6
20260509152018 54 68 3.0 6.0 0.00 0.00 0.00 75 1006.6
20260509151038 54 68 3.0 7.0 0.00 0.00 0.00 76 1006.8
20260509150018 54 68 4.0 7.0 0.00 0.00 0.00 74 1006.8
20260509145018 53 68 2.0 6.0 0.00 0.00 0.00 75 1006.8
20260509144018 53 68 4.0 8.0 0.00 0.01 0.00 75 1007.0
20260509143018 52 68 1.0 3.0 0.00 0.02 0.00 75 1007.0
20260509142017 52 68 3.0 7.0 0.00 0.02 0.00 75 1007.1
20260509141017 51 68 5.0 10.0 0.00 0.03 0.00 75 1007.0
20260509140038 51 68 3.0 6.0 0.00 0.03 0.00 75 1007.0
20260509135017 50 68 4.0 10.0 0.00 0.03 0.00 75 1007.3
20260509134017 50 90 3.0 7.0 0.00 0.03 0.00 75 1007.4
20260509133017 50 68 3.0 6.0 0.00 0.04 0.00 74 1007.4
20260509132017 50 68 1.0 4.0 0.00 0.04 0.00 75 1007.4
20260509131017 49 68 1.0 4.0 0.00 0.04 0.00 75 1007.6
20260509130017 49 90 3.0 5.0 0.00 0.04 0.00 74 1007.4
20260509125017 49 45 3.0 6.0 0.00 0.04 0.00 75 1007.2
20260509124037 48 68 2.0 6.0 0.00 0.04 0.00 76 1007.3
20260509123017 48 68 3.0 6.0 0.00 0.04 0.00 74 1007.3
20260509122017 48 90 1.0 4.0 0.00 0.04 0.00 73 1007.5
20260509121017 47 0.0 1.0 0.00 0.04 0.00 74 1007.7
20260509120017 47 0.0 0.0 0.00 0.04 0.00 73 1007.5
20260509115017 47 0.0 0.0 0.00 0.04 0.00 73 1007.7
20260509114017 46 0.0 1.0 0.00 0.04 0.00 73 1007.8
20260509113017 46 0.0 1.0 0.00 0.04 0.00 73 1007.8
20260509112017 45 0.0 3.0 0.00 0.04 0.00 73 1007.8
20260509111017 45 90 1.0 5.0 0.00 0.04 0.00 73 1007.8
20260509110017 45 90 1.0 3.0 0.00 0.04 0.00 72 1007.9
20260509105017 45 90 2.0 6.0 0.00 0.04 0.00 72 1007.8
20260509104017 45 68 2.0 5.0 0.00 0.04 0.00 72 1007.9
20260509103037 44 68 1.0 5.0 0.00 0.04 0.00 74 1007.8
20260509102017 43 0.0 0.0 0.00 0.04 0.00 78 1007.9
20260509101019 42 0.0 0.0 0.00 0.04 0.00 79 1007.7
20260509100018 42 0.0 1.0 0.00 0.04 0.00 78 1007.5
20260509095019 43 0.0 1.0 0.00 0.04 0.00 77 1007.5
20260509094020 43 0.0 0.0 0.00 0.04 0.00 76 1007.4
20260509093019 42 0.0 0.0 0.00 0.04 0.00 77 1007.4
20260509092019 42 0.0 0.0 0.00 0.04 0.00 78 1007.5
20260509091019 42 0.0 0.0 0.00 0.04 0.00 80 1007.6
20260509090018 41 0.0 0.0 0.00 0.04 0.00 80 1007.7
20260509085020 41 0.0 0.0 0.00 0.04 0.00 80 1008.0
20260509084019 41 0.0 1.0 0.00 0.04 0.00 80 1008.1
20260509083041 41 0.0 0.0 0.00 0.04 0.00 79 1008.1
20260509082059 42 0.0 0.0 0.00 0.04 0.00 78 1008.2
20260509081018 42 0.0 0.0 0.00 0.04 0.00 76 1008.2
20260509080018 43 0.0 0.0 0.00 0.04 0.00 76 1008.2
20260509075018 42 0.0 0.0 0.00 0.04 0.00 78 1008.3
20260509074018 42 0.0 0.0 0.00 0.04 0.00 78 1008.5
20260509073018 42 0.0 0.0 0.00 0.04 0.00 78 1008.5
20260509072018 42 0.0 0.0 0.00 0.04 0.00 76 1008.3
20260509071018 43 0.0 0.0 0.00 0.04 0.00 75 1008.3
20260509070018 43 0.0 0.0 0.00 0.04 0.00 75 1008.3
20260509065058 42 0.0 0.0 0.00 0.05 0.00 75 1008.4
20260509064020 43 0.0 0.0 0.00 0.05 0.00 75 1008.5
20260509063018 43 0.0 0.0 0.00 0.05 0.00 74 1008.6
20260509062018 43 0.0 0.0 0.00 0.07 0.00 73 1008.7
20260509061018 43 180 1.0 3.0 0.00 0.07 0.00 73 1008.8
20260509060018 43 158 1.0 2.0 0.00 0.07 0.00 72 1009.0
20260509055018 44 180 1.0 3.0 0.00 0.07 0.00 72 1009.2
20260509054058 44 180 2.0 4.0 0.00 0.07 0.00 72 1009.2
20260509053017 43 180 2.0 3.0 0.00 0.07 0.00 73 1009.3
20260509052018 43 180 2.0 3.0 0.00 0.07 0.00 74 1009.4